| time (UTC) | temp F | wind direction | speed MPH | gust MPH | rain 1hr in | rain 24hr in | rain mn in | humidity % | barometer mb |
| 20260510141024 | 58 | 165 | 6.0 | 10.0 | 0.00 | 0.00 | 0.00 | 41 | 1023.4 |
| 20260510140522 | 58 | 168 | 5.0 | 9.0 | 0.00 | 0.00 | 0.00 | 41 | 1023.5 |
| 20260510140021 | 57 | 160 | 4.0 | 10.0 | 0.00 | 0.00 | 0.00 | 41 | 1023.4 |
| 20260510135522 | 57 | 157 | 3.0 | 10.0 | 0.00 | 0.00 | 0.00 | 40 | 1023.4 |
| 20260510135019 | 57 | 176 | 5.0 | 8.0 | 0.00 | 0.00 | 0.00 | 38 | 1023.4 |
| 20260510134518 | 57 | 155 | 3.0 | 9.0 | 0.00 | 0.00 | 0.00 | 36 | 1023.4 |
| 20260510134017 | 57 | 193 | 5.0 | 9.0 | 0.00 | 0.00 | 0.00 | 35 | 1023.3 |
| 20260510133516 | 56 | 160 | 3.0 | 8.0 | 0.00 | 0.00 | 0.00 | 34 | 1023.3 |
| 20260510133017 | 56 | 162 | 2.0 | 6.0 | 0.00 | 0.00 | 0.00 | 34 | 1023.3 |
| 20260510132515 | 55 | 151 | 0.0 | 3.0 | 0.00 | 0.00 | 0.00 | 34 | 1023.2 |
| 20260510132014 | 54 | 207 | 1.0 | 4.0 | 0.00 | 0.00 | 0.00 | 34 | 1023.2 |
| 20260510131513 | 54 | 214 | 1.0 | 4.0 | 0.00 | 0.00 | 0.00 | 34 | 1023.0 |
| 20260510131012 | 53 | 216 | 1.0 | 3.0 | 0.00 | 0.00 | 0.00 | 35 | 1022.9 |
| 20260510130511 | 52 | 217 | 1.0 | 2.0 | 0.00 | 0.00 | 0.00 | 37 | 1022.8 |
| 20260510130011 | 50 | 232 | 0.0 | 2.0 | 0.00 | 0.00 | 0.00 | 39 | 1022.8 |
| 20260510125513 | 50 | 236 | 1.0 | 2.0 | 0.00 | 0.00 | 0.00 | 41 | 1022.7 |
| 20260510125010 | 49 | 243 | 1.0 | 2.0 | 0.00 | 0.00 | 0.00 | 41 | 1022.8 |
| 20260510124510 | 49 | 240 | 1.0 | 2.0 | 0.00 | 0.00 | 0.00 | 42 | 1022.6 |
| 20260510124012 | 49 | 243 | 1.0 | 2.0 | 0.00 | 0.00 | 0.00 | 42 | 1022.7 |
| 20260510123510 | 49 | 240 | 1.0 | 2.0 | 0.00 | 0.00 | 0.00 | 41 | 1022.6 |
| 20260510123010 | 49 | 239 | 1.0 | 2.0 | 0.00 | 0.00 | 0.00 | 41 | 1022.5 |
| 20260510122509 | 48 | 226 | 0.0 | 2.0 | 0.00 | 0.00 | 0.00 | 42 | 1022.5 |
| 20260510122008 | 48 | 229 | 0.0 | 2.0 | 0.00 | 0.00 | 0.00 | 42 | 1022.6 |
| 20260510121508 | 48 | 219 | 1.0 | 2.0 | 0.00 | 0.00 | 0.00 | 42 | 1022.5 |
| 20260510121008 | 48 | 226 | 1.0 | 2.0 | 0.00 | 0.00 | 0.00 | 42 | 1022.5 |
| 20260510120511 | 48 | 239 | 1.0 | 3.0 | 0.00 | 0.00 | 0.00 | 43 | 1022.4 |
| 20260510120007 | 48 | 218 | 0.0 | 2.0 | 0.00 | 0.00 | 0.00 | 44 | 1022.5 |
| 20260510115505 | 48 | 158 | 0.0 | 2.0 | 0.00 | 0.00 | 0.00 | 42 | 1022.5 |
| 20260510115004 | 49 | 155 | 0.0 | 2.0 | 0.00 | 0.00 | 0.00 | 40 | 1022.4 |
| 20260510114503 | 50 | 180 | 0.0 | 0.0 | 0.00 | 0.00 | 0.00 | 39 | 1022.3 |
| 20260510114003 | 50 | 208 | 0.0 | 0.0 | 0.00 | 0.00 | 0.00 | 38 | 1022.3 |
| 20260510113501 | 49 | 151 | 0.0 | 1.0 | 0.00 | 0.00 | 0.00 | 39 | 1022.2 |
| 20260510113001 | 50 | 150 | 0.0 | 1.0 | 0.00 | 0.00 | 0.00 | 39 | 1022.1 |
| 20260510112600 | 50 | 127 | 0.0 | 1.0 | 0.00 | 0.00 | 0.00 | 39 | 1022.1 |
| 20260510112100 | 51 | 127 | 0.0 | 2.0 | 0.00 | 0.00 | 0.00 | 38 | 1022.0 |
| 20260510111557 | 52 | 123 | 0.0 | 4.0 | 0.00 | 0.00 | 0.00 | 36 | 1022.0 |
| 20260510111056 | 52 | 213 | 1.0 | 4.0 | 0.00 | 0.00 | 0.00 | 34 | 1022.0 |
| 20260510110555 | 52 | 248 | 2.0 | 4.0 | 0.00 | 0.00 | 0.00 | 34 | 1022.0 |
| 20260510110055 | 52 | 255 | 1.0 | 3.0 | 0.00 | 0.00 | 0.00 | 34 | 1022.0 |
| 20260510105557 | 52 | 255 | 1.0 | 3.0 | 0.00 | 0.00 | 0.00 | 34 | 1022.0 |
| 20260510105054 | 52 | 260 | 1.0 | 3.0 | 0.00 | 0.00 | 0.00 | 34 | 1022.0 |
| 20260510104553 | 52 | 261 | 1.0 | 4.0 | 0.00 | 0.00 | 0.00 | 34 | 1021.9 |
| 20260510104052 | 52 | 250 | 2.0 | 4.0 | 0.00 | 0.00 | 0.00 | 34 | 1021.9 |
| 20260510103552 | 52 | 269 | 2.0 | 4.0 | 0.00 | 0.00 | 0.00 | 34 | 1021.9 |
| 20260510103100 | 52 | 243 | 1.0 | 3.0 | 0.00 | 0.00 | 0.00 | 34 | 1021.9 |
| 20260510102551 | 52 | 269 | 2.0 | 4.0 | 0.00 | 0.00 | 0.00 | 34 | 1022.0 |
| 20260510102050 | 52 | 244 | 2.0 | 4.0 | 0.00 | 0.00 | 0.00 | 34 | 1021.9 |
| 20260510101556 | 52 | 259 | 2.0 | 4.0 | 0.00 | 0.00 | 0.00 | 34 | 1021.9 |
| 20260510101048 | 53 | 280 | 2.0 | 3.0 | 0.00 | 0.00 | 0.00 | 33 | 1021.8 |
| 20260510100548 | 53 | 272 | 1.0 | 4.0 | 0.00 | 0.00 | 0.00 | 33 | 1021.8 |
| 20260510100048 | 53 | 284 | 1.0 | 3.0 | 0.00 | 0.00 | 0.00 | 33 | 1021.7 |
| 20260510095548 | 53 | 279 | 1.0 | 3.0 | 0.00 | 0.00 | 0.00 | 33 | 1021.7 |
| 20260510095048 | 53 | 258 | 2.0 | 3.0 | 0.00 | 0.00 | 0.00 | 33 | 1021.7 |
| 20260510094548 | 53 | 262 | 2.0 | 4.0 | 0.00 | 0.00 | 0.00 | 33 | 1021.6 |
| 20260510094046 | 53 | 271 | 2.0 | 4.0 | 0.00 | 0.00 | 0.00 | 33 | 1021.6 |
| 20260510093545 | 53 | 261 | 1.0 | 4.0 | 0.00 | 0.00 | 0.00 | 33 | 1021.6 |
| 20260510093045 | 53 | 256 | 2.0 | 4.0 | 0.00 | 0.00 | 0.00 | 33 | 1021.6 |
| 20260510092544 | 53 | 276 | 1.0 | 4.0 | 0.00 | 0.00 | 0.00 | 32 | 1021.5 |
| 20260510092043 | 53 | 275 | 2.0 | 4.0 | 0.00 | 0.00 | 0.00 | 32 | 1021.5 |
| 20260510091543 | 53 | 251 | 1.0 | 3.0 | 0.00 | 0.00 | 0.00 | 32 | 1021.5 |
| 20260510091042 | 53 | 271 | 2.0 | 4.0 | 0.00 | 0.00 | 0.00 | 31 | 1021.4 |
| 20260510090542 | 53 | 274 | 1.0 | 4.0 | 0.00 | 0.00 | 0.00 | 31 | 1021.5 |
| 20260510090045 | 53 | 272 | 2.0 | 3.0 | 0.00 | 0.00 | 0.00 | 31 | 1021.4 |
| 20260510085540 | 53 | 275 | 1.0 | 3.0 | 0.00 | 0.00 | 0.00 | 31 | 1021.4 |
| 20260510085040 | 54 | 282 | 1.0 | 3.0 | 0.00 | 0.00 | 0.00 | 31 | 1021.4 |
| 20260510084540 | 54 | 282 | 1.0 | 3.0 | 0.00 | 0.00 | 0.00 | 30 | 1021.3 |
| 20260510084041 | 54 | 257 | 2.0 | 3.0 | 0.00 | 0.00 | 0.00 | 30 | 1021.3 |
| 20260510083543 | 53 | 233 | 1.0 | 3.0 | 0.00 | 0.00 | 0.00 | 30 | 1021.2 |
| 20260510083038 | 54 | 254 | 1.0 | 3.0 | 0.00 | 0.00 | 0.00 | 30 | 1021.2 |
| 20260510082537 | 54 | 278 | 1.0 | 2.0 | 0.00 | 0.00 | 0.00 | 30 | 1021.2 |
| 20260510082038 | 54 | 274 | 0.0 | 2.0 | 0.00 | 0.00 | 0.00 | 30 | 1021.2 |
| 20260510081543 | 54 | 246 | 1.0 | 4.0 | 0.00 | 0.00 | 0.00 | 29 | 1021.2 |
| 20260510081036 | 54 | 264 | 1.0 | 4.0 | 0.00 | 0.00 | 0.00 | 29 | 1021.1 |
| 20260510080535 | 55 | 245 | 1.0 | 3.0 | 0.00 | 0.00 | 0.00 | 28 | 1021.1 |
| 20260510080134 | 55 | 289 | 0.0 | 4.0 | 0.00 | 0.00 | 0.00 | 28 | 1021.1 |
| 20260510075534 | 55 | 285 | 1.0 | 4.0 | 0.00 | 0.00 | 0.00 | 28 | 1021.1 |
| 20260510075033 | 55 | 274 | 1.0 | 3.0 | 0.00 | 0.00 | 0.00 | 28 | 1021.1 |
| 20260510074533 | 55 | 254 | 1.0 | 5.0 | 0.00 | 0.00 | 0.00 | 28 | 1021.0 |
| 20260510074032 | 55 | 266 | 2.0 | 5.0 | 0.00 | 0.00 | 0.00 | 28 | 1021.0 |
| 20260510073533 | 55 | 279 | 2.0 | 4.0 | 0.00 | 0.00 | 0.00 | 27 | 1020.9 |
| 20260510073031 | 55 | 290 | 1.0 | 4.0 | 0.00 | 0.00 | 0.00 | 27 | 1020.9 |
| 20260510072531 | 55 | 277 | 2.0 | 4.0 | 0.00 | 0.00 | 0.00 | 27 | 1020.9 |
| 20260510072132 | 55 | 274 | 2.0 | 4.0 | 0.00 | 0.00 | 0.00 | 27 | 1020.9 |
| 20260510071532 | 55 | 276 | 2.0 | 4.0 | 0.00 | 0.00 | 0.00 | 27 | 1020.8 |
| 20260510071028 | 55 | 278 | 2.0 | 4.0 | 0.00 | 0.00 | 0.00 | 27 | 1020.8 |
| 20260510070529 | 55 | 268 | 2.0 | 4.0 | 0.00 | 0.00 | 0.00 | 27 | 1020.8 |
| 20260510070033 | 55 | 252 | 2.0 | 4.0 | 0.00 | 0.00 | 0.00 | 26 | 1020.7 |
| 20260510065526 | 55 | 272 | 1.0 | 4.0 | 0.00 | 0.00 | 0.00 | 26 | 1020.6 |
| 20260510065028 | 55 | 276 | 2.0 | 4.0 | 0.00 | 0.00 | 0.00 | 26 | 1020.5 |
| 20260510064525 | 55 | 252 | 0.0 | 4.0 | 0.00 | 0.00 | 0.00 | 26 | 1020.5 |
| 20260510064024 | 56 | 276 | 1.0 | 4.0 | 0.00 | 0.00 | 0.00 | 26 | 1020.5 |
| 20260510063524 | 56 | 280 | 2.0 | 3.0 | 0.00 | 0.00 | 0.00 | 26 | 1020.4 |
| 20260510063023 | 56 | 284 | 2.0 | 3.0 | 0.00 | 0.00 | 0.00 | 26 | 1020.4 |
| 20260510062523 | 56 | 268 | 1.0 | 3.0 | 0.00 | 0.00 | 0.00 | 26 | 1020.3 |
| 20260510062025 | 56 | 281 | 1.0 | 3.0 | 0.00 | 0.00 | 0.00 | 26 | 1020.2 |
| 20260510061526 | 56 | 281 | 2.0 | 4.0 | 0.00 | 0.00 | 0.00 | 26 | 1020.1 |
| 20260510061020 | 56 | 269 | 3.0 | 4.0 | 0.00 | 0.00 | 0.00 | 26 | 1020.0 |
| 20260510060522 | 56 | 263 | 1.0 | 4.0 | 0.00 | 0.00 | 0.00 | 26 | 1020.0 |
| 20260510060018 | 56 | 286 | 2.0 | 4.0 | 0.00 | 0.00 | 0.00 | 26 | 1020.0 |
| 20260510055518 | 56 | 253 | 1.0 | 4.0 | 0.00 | 0.00 | 0.00 | 26 | 1020.0 |
| 20260510055016 | 56 | 257 | 2.0 | 4.0 | 0.00 | 0.00 | 0.00 | 26 | 1019.9 |
| 20260510054516 | 56 | 257 | 2.0 | 4.0 | 0.00 | 0.00 | 0.00 | 26 | 1019.9 |
| 20260510054016 | 56 | 277 | 2.0 | 4.0 | 0.00 | 0.00 | 0.00 | 26 | 1019.9 |
| 20260510053515 | 56 | 262 | 1.0 | 3.0 | 0.00 | 0.00 | 0.00 | 27 | 1019.8 |
| 20260510053014 | 56 | 267 | 1.0 | 3.0 | 0.00 | 0.00 | 0.00 | 27 | 1019.8 |
| 20260510052515 | 56 | 263 | 1.0 | 3.0 | 0.00 | 0.00 | 0.00 | 26 | 1019.8 |
| 20260510052014 | 56 | 261 | 1.0 | 2.0 | 0.00 | 0.00 | 0.00 | 26 | 1019.8 |
| 20260510051526 | 57 | 248 | 1.0 | 3.0 | 0.00 | 0.00 | 0.00 | 26 | 1019.7 |
| 20260510051013 | 57 | 278 | 0.0 | 1.0 | 0.00 | 0.00 | 0.00 | 26 | 1019.7 |
| 20260510050512 | 57 | 251 | 1.0 | 2.0 | 0.00 | 0.00 | 0.00 | 25 | 1019.6 |
| 20260510050012 | 57 | 271 | 0.0 | 2.0 | 0.00 | 0.00 | 0.00 | 25 | 1019.6 |
| 20260510045515 | 57 | 247 | 1.0 | 3.0 | 0.00 | 0.00 | 0.00 | 25 | 1019.6 |
| 20260510045012 | 57 | 269 | 1.0 | 3.0 | 0.00 | 0.00 | 0.00 | 25 | 1019.6 |
| 20260510044512 | 57 | 254 | 1.0 | 3.0 | 0.00 | 0.00 | 0.00 | 25 | 1019.5 |
| 20260510044011 | 57 | 262 | 2.0 | 3.0 | 0.00 | 0.00 | 0.00 | 25 | 1019.5 |
| 20260510043511 | 58 | 280 | 2.0 | 4.0 | 0.00 | 0.00 | 0.00 | 25 | 1019.4 |
| 20260510043019 | 58 | 274 | 1.0 | 3.0 | 0.00 | 0.00 | 0.00 | 25 | 1019.3 |
| 20260510042511 | 58 | 274 | 1.0 | 3.0 | 0.00 | 0.00 | 0.00 | 24 | 1019.3 |
| 20260510042010 | 58 | 252 | 1.0 | 4.0 | 0.00 | 0.00 | 0.00 | 24 | 1019.3 |
| 20260510041509 | 58 | 271 | 2.0 | 4.0 | 0.00 | 0.00 | 0.00 | 24 | 1019.2 |
| 20260510041009 | 58 | 274 | 2.0 | 4.0 | 0.00 | 0.00 | 0.00 | 24 | 1019.1 |
| 20260510040509 | 58 | 278 | 2.0 | 4.0 | 0.00 | 0.00 | 0.00 | 24 | 1019.1 |
| 20260510040009 | 58 | 253 | 1.0 | 3.0 | 0.00 | 0.00 | 0.00 | 25 | 1019.0 |
| 20260510035508 | 59 | 239 | 1.0 | 4.0 | 0.00 | 0.00 | 0.00 | 25 | 1018.8 |
| 20260510035011 | 59 | 239 | 2.0 | 5.0 | 0.00 | 0.00 | 0.00 | 25 | 1018.9 |
| 20260510034509 | 59 | 248 | 2.0 | 5.0 | 0.00 | 0.00 | 0.00 | 24 | 1018.8 |
| 20260510034012 | 60 | 231 | 3.0 | 5.0 | 0.00 | 0.00 | 0.00 | 24 | 1018.7 |
| 20260510033507 | 60 | 282 | 1.0 | 3.0 | 0.00 | 0.00 | 0.00 | 24 | 1018.6 |
| 20260510033007 | 61 | 287 | 0.0 | 2.0 | 0.00 | 0.00 | 0.00 | 23 | 1018.5 |
| 20260510032511 | 61 | 287 | 1.0 | 2.0 | 0.00 | 0.00 | 0.00 | 23 | 1018.5 |
| 20260510032007 | 61 | 262 | 1.0 | 4.0 | 0.00 | 0.00 | 0.00 | 23 | 1018.3 |
| 20260510031507 | 61 | 287 | 2.0 | 4.0 | 0.00 | 0.00 | 0.00 | 22 | 1018.2 |
| 20260510031007 | 62 | 250 | 1.0 | 4.0 | 0.00 | 0.00 | 0.00 | 22 | 1018.1 |
| 20260510030509 | 62 | 257 | 2.0 | 5.0 | 0.00 | 0.00 | 0.00 | 21 | 1018.1 |
| 20260510030011 | 62 | 231 | 2.0 | 5.0 | 0.00 | 0.00 | 0.00 | 21 | 1018.0 |
| 20260510025506 | 63 | 273 | 2.0 | 5.0 | 0.00 | 0.00 | 0.00 | 21 | 1018.0 |
| 20260510025006 | 64 | 265 | 1.0 | 3.0 | 0.00 | 0.00 | 0.00 | 21 | 1017.9 |
| 20260510024506 | 64 | 238 | 2.0 | 3.0 | 0.00 | 0.00 | 0.00 | 20 | 1017.9 |
| 20260510024005 | 65 | 248 | 1.0 | 3.0 | 0.00 | 0.00 | 0.00 | 19 | 1017.9 |
| 20260510023505 | 66 | 31 | 0.0 | 0.0 | 0.00 | 0.00 | 0.00 | 18 | 1017.8 |
| 20260510023006 | 67 | 32 | 0.0 | 0.0 | 0.00 | 0.00 | 0.00 | 16 | 1017.8 |
| 20260510022508 | 68 | 32 | 0.0 | 0.0 | 0.00 | 0.00 | 0.00 | 15 | 1017.6 |
| 20260510022005 | 68 | 32 | 0.0 | 1.0 | 0.00 | 0.00 | 0.00 | 15 | 1017.6 |
| 20260510021511 | 69 | 32 | 0.0 | 3.0 | 0.00 | 0.00 | 0.00 | 14 | 1017.6 |
| 20260510021004 | 69 | 35 | 0.0 | 3.0 | 0.00 | 0.00 | 0.00 | 14 | 1017.5 |
| 20260510020504 | 70 | 60 | 0.0 | 6.0 | 0.00 | 0.00 | 0.00 | 14 | 1017.6 |
| 20260510020004 | 70 | 50 | 3.0 | 8.0 | 0.00 | 0.00 | 0.00 | 13 | 1017.5 |
| 20260510015508 | 70 | 2 | 3.0 | 8.0 | 0.00 | 0.00 | 0.00 | 13 | 1017.5 |
| 20260510015003 | 70 | 45 | 1.0 | 7.0 | 0.00 | 0.00 | 0.00 | 13 | 1017.4 |
| 20260510014503 | 70 | 19 | 1.0 | 8.0 | 0.00 | 0.00 | 0.00 | 13 | 1017.3 |
| 20260510014004 | 70 | 46 | 4.0 | 9.0 | 0.00 | 0.00 | 0.00 | 13 | 1017.4 |
| 20260510013504 | 71 | 32 | 4.0 | 10.0 | 0.00 | 0.00 | 0.00 | 13 | 1017.4 |
| 20260510013003 | 71 | 23 | 3.0 | 10.0 | 0.00 | 0.00 | 0.00 | 13 | 1017.4 |
| 20260510012503 | 71 | 34 | 4.0 | 7.0 | 0.00 | 0.00 | 0.00 | 13 | 1017.5 |
| 20260510012003 | 71 | 39 | 2.0 | 9.0 | 0.00 | 0.00 | 0.00 | 13 | 1017.5 |
| 20260510011505 | 71 | 63 | 4.0 | 12.0 | 0.00 | 0.00 | 0.00 | 13 | 1017.5 |
| 20260510011002 | 71 | 345 | 2.0 | 9.0 | 0.00 | 0.00 | 0.00 | 13 | 1017.5 |
| 20260510010502 | 71 | 10 | 4.0 | 9.0 | 0.00 | 0.00 | 0.00 | 13 | 1017.5 |
| 20260510010002 | 71 | 9 | 5.0 | 9.0 | 0.00 | 0.00 | 0.00 | 13 | 1017.5 |
| 20260510005502 | 71 | 30 | 6.0 | 10.0 | 0.00 | 0.00 | 0.00 | 13 | 1017.5 |
| 20260510005002 | 71 | 58 | 4.0 | 13.0 | 0.00 | 0.00 | 0.00 | 13 | 1017.5 |
| 20260510004502 | 71 | 22 | 6.0 | 13.0 | 0.00 | 0.00 | 0.00 | 14 | 1017.5 |
| 20260510004002 | 71 | 30 | 4.0 | 11.0 | 0.00 | 0.00 | 0.00 | 14 | 1017.6 |
| 20260510003501 | 71 | 33 | 5.0 | 11.0 | 0.00 | 0.00 | 0.00 | 14 | 1017.6 |
| 20260510003001 | 71 | 333 | 5.0 | 12.0 | 0.00 | 0.00 | 0.00 | 13 | 1017.7 |
| 20260510002500 | 71 | 1 | 6.0 | 13.0 | 0.00 | 0.00 | 0.00 | 14 | 1017.6 |
| 20260510002001 | 71 | 18 | 6.0 | 13.0 | 0.00 | 0.00 | 0.00 | 14 | 1017.7 |
| 20260510001502 | 71 | 1 | 6.0 | 14.0 | 0.00 | 0.00 | 0.00 | 13 | 1017.8 |
| 20260510001100 | 71 | 41 | 7.0 | 14.0 | 0.00 | 0.00 | 0.00 | 13 | 1017.8 |
| 20260510000601 | 71 | 34 | 7.0 | 17.0 | 0.00 | 0.00 | 0.00 | 13 | 1017.8 |
| 20260510000059 | 71 | 6 | 5.0 | 14.0 | 0.00 | 0.00 | 0.00 | 14 | 1017.8 |
| 20260509235602 | 71 | 342 | 7.0 | 14.0 | 0.00 | 0.00 | 0.00 | 13 | 1017.8 |
| 20260509235101 | 71 | 354 | 7.0 | 13.0 | 0.00 | 0.00 | 0.00 | 13 | 1017.8 |
| 20260509234559 | 71 | 27 | 5.0 | 13.0 | 0.00 | 0.00 | 0.00 | 13 | 1017.8 |
| 20260509234059 | 71 | 26 | 7.0 | 17.0 | 0.00 | 0.00 | 0.00 | 13 | 1017.9 |
| 20260509233600 | 71 | 13 | 9.0 | 17.0 | 0.00 | 0.00 | 0.00 | 13 | 1017.8 |
| 20260509233058 | 71 | 328 | 6.0 | 15.0 | 0.00 | 0.00 | 0.00 | 13 | 1017.8 |
| 20260509232600 | 71 | 351 | 8.0 | 15.0 | 0.00 | 0.00 | 0.00 | 13 | 1017.9 |
| 20260509232058 | 71 | 350 | 9.0 | 16.0 | 0.00 | 0.00 | 0.00 | 13 | 1017.9 |
| 20260509231608 | 71 | 30 | 8.0 | 16.0 | 0.00 | 0.00 | 0.00 | 13 | 1018.0 |
| 20260509231057 | 71 | 38 | 8.0 | 15.0 | 0.00 | 0.00 | 0.00 | 13 | 1018.0 |
| 20260509230602 | 71 | 18 | 9.0 | 21.0 | 0.00 | 0.00 | 0.00 | 13 | 1018.1 |
| 20260509230057 | 71 | 32 | 9.0 | 18.0 | 0.00 | 0.00 | 0.00 | 13 | 1018.1 |
| 20260509225556 | 71 | 18 | 8.0 | 18.0 | 0.00 | 0.00 | 0.00 | 13 | 1018.1 |
| 20260509225056 | 71 | 319 | 9.0 | 16.0 | 0.00 | 0.00 | 0.00 | 13 | 1018.1 |
| 20260509224555 | 71 | 333 | 8.0 | 16.0 | 0.00 | 0.00 | 0.00 | 13 | 1018.1 |
| 20260509224054 | 71 | 11 | 7.0 | 19.0 | 0.00 | 0.00 | 0.00 | 12 | 1018.1 |
| 20260509223554 | 70 | 309 | 10.0 | 19.0 | 0.00 | 0.00 | 0.00 | 13 | 1018.1 |
| 20260509223055 | 70 | 60 | 10.0 | 19.0 | 0.00 | 0.00 | 0.00 | 13 | 1018.2 |
| 20260509222555 | 71 | 8 | 7.0 | 18.0 | 0.00 | 0.00 | 0.00 | 14 | 1018.2 |
| 20260509222052 | 70 | 326 | 8.0 | 18.0 | 0.00 | 0.00 | 0.00 | 14 | 1018.3 |
| 20260509221552 | 70 | 53 | 10.0 | 18.0 | 0.00 | 0.00 | 0.00 | 15 | 1018.2 |
| 20260509221052 | 70 | 13 | 10.0 | 19.0 | 0.00 | 0.00 | 0.00 | 14 | 1018.2 |
| 20260509220651 | 70 | 359 | 11.0 | 19.0 | 0.00 | 0.00 | 0.00 | 14 | 1018.2 |
| 20260509220051 | 70 | 334 | 8.0 | 18.0 | 0.00 | 0.00 | 0.00 | 14 | 1018.3 |
| 20260509215554 | 70 | 33 | 10.0 | 18.0 | 0.00 | 0.00 | 0.00 | 14 | 1018.3 |
| 20260509215051 | 70 | 1 | 10.0 | 17.0 | 0.00 | 0.00 | 0.00 | 14 | 1018.4 |
| 20260509214551 | 70 | 355 | 11.0 | 17.0 | 0.00 | 0.00 | 0.00 | 14 | 1018.5 |
| 20260509214053 | 70 | 39 | 8.0 | 17.0 | 0.00 | 0.00 | 0.00 | 14 | 1018.5 |
| 20260509213550 | 70 | 45 | 8.0 | 15.0 | 0.00 | 0.00 | 0.00 | 15 | 1018.5 |
| 20260509213152 | 70 | 60 | 8.0 | 18.0 | 0.00 | 0.00 | 0.00 | 17 | 1018.5 |
| 20260509212550 | 70 | 11 | 8.0 | 18.0 | 0.00 | 0.00 | 0.00 | 17 | 1018.5 |
| 20260509212050 | 70 | 335 | 10.0 | 17.0 | 0.00 | 0.00 | 0.00 | 17 | 1018.5 |
| 20260509211556 | 70 | 330 | 9.0 | 15.0 | 0.00 | 0.00 | 0.00 | 17 | 1018.4 |
| 20260509211049 | 70 | 321 | 6.0 | 13.0 | 0.00 | 0.00 | 0.00 | 16 | 1018.5 |
| 20260509210549 | 70 | 293 | 4.0 | 15.0 | 0.00 | 0.00 | 0.00 | 18 | 1018.5 |
| 20260509210054 | 69 | 32 | 9.0 | 15.0 | 0.00 | 0.00 | 0.00 | 17 | 1018.5 |
| 20260509205548 | 69 | 354 | 5.0 | 12.0 | 0.00 | 0.00 | 0.00 | 18 | 1018.5 |
| 20260509205048 | 68 | 321 | 7.0 | 13.0 | 0.00 | 0.00 | 0.00 | 17 | 1018.6 |
| 20260509204547 | 68 | 359 | 8.0 | 13.0 | 0.00 | 0.00 | 0.00 | 17 | 1018.6 |
| 20260509204047 | 69 | 56 | 5.0 | 13.0 | 0.00 | 0.00 | 0.00 | 16 | 1018.7 |
| 20260509203552 | 69 | 351 | 8.0 | 13.0 | 0.00 | 0.00 | 0.00 | 14 | 1018.7 |
| 20260509203051 | 70 | 338 | 6.0 | 13.0 | 0.00 | 0.00 | 0.00 | 17 | 1018.7 |
| 20260509202546 | 70 | 296 | 3.0 | 15.0 | 0.00 | 0.00 | 0.00 | 16 | 1018.6 |
| 20260509202045 | 69 | 42 | 9.0 | 15.0 | 0.00 | 0.00 | 0.00 | 17 | 1018.6 |
| 20260509201544 | 69 | 32 | 4.0 | 12.0 | 0.00 | 0.00 | 0.00 | 20 | 1018.7 |
| 20260509201043 | 68 | 352 | 4.0 | 13.0 | 0.00 | 0.00 | 0.00 | 20 | 1018.8 |
| 20260509200543 | 68 | 335 | 5.0 | 15.0 | 0.00 | 0.00 | 0.00 | 20 | 1018.8 |
| 20260509200048 | 68 | 7 | 7.0 | 19.0 | 0.00 | 0.00 | 0.00 | 22 | 1018.9 |
| 20260509195546 | 68 | 338 | 4.0 | 14.0 | 0.00 | 0.00 | 0.00 | 21 | 1018.9 |
| 20260509195043 | 68 | 335 | 8.0 | 14.0 | 0.00 | 0.00 | 0.00 | 21 | 1018.9 |
| 20260509194543 | 68 | 6 | 4.0 | 14.0 | 0.00 | 0.00 | 0.00 | 22 | 1018.9 |
| 20260509194042 | 68 | 13 | 6.0 | 14.0 | 0.00 | 0.00 | 0.00 | 20 | 1018.8 |
| 20260509193544 | 68 | 51 | 7.0 | 15.0 | 0.00 | 0.00 | 0.00 | 22 | 1018.9 |
| 20260509193044 | 68 | 18 | 9.0 | 15.0 | 0.00 | 0.00 | 0.00 | 21 | 1018.9 |
| 20260509192541 | 68 | 21 | 9.0 | 14.0 | 0.00 | 0.00 | 0.00 | 21 | 1018.9 |
| 20260509192043 | 68 | 34 | 7.0 | 15.0 | 0.00 | 0.00 | 0.00 | 22 | 1018.9 |
| 20260509191542 | 68 | 338 | 4.0 | 15.0 | 0.00 | 0.00 | 0.00 | 22 | 1019.0 |
| 20260509191040 | 69 | 333 | 3.0 | 13.0 | 0.00 | 0.00 | 0.00 | 22 | 1019.0 |
| 20260509190540 | 68 | 338 | 6.0 | 16.0 | 0.00 | 0.00 | 0.00 | 22 | 1019.0 |
| 20260509190047 | 68 | 11 | 8.0 | 16.0 | 0.00 | 0.00 | 0.00 | 23 | 1018.9 |
| 20260509185540 | 69 | 341 | 4.0 | 13.0 | 0.00 | 0.00 | 0.00 | 23 | 1019.0 |
| 20260509185038 | 68 | 333 | 6.0 | 13.0 | 0.00 | 0.00 | 0.00 | 22 | 1019.0 |
| 20260509184539 | 68 | 331 | 7.0 | 14.0 | 0.00 | 0.00 | 0.00 | 24 | 1019.1 |
| 20260509184038 | 68 | 39 | 6.0 | 14.0 | 0.00 | 0.00 | 0.00 | 22 | 1019.1 |
| 20260509183537 | 67 | 80 | 4.0 | 13.0 | 0.00 | 0.00 | 0.00 | 24 | 1019.1 |
| 20260509183037 | 67 | 334 | 7.0 | 13.0 | 0.00 | 0.00 | 0.00 | 23 | 1019.2 |
| 20260509182537 | 67 | 326 | 7.0 | 12.0 | 0.00 | 0.00 | 0.00 | 23 | 1019.1 |
| 20260509182037 | 67 | 323 | 6.0 | 15.0 | 0.00 | 0.00 | 0.00 | 24 | 1019.2 |
| 20260509181536 | 67 | 341 | 5.0 | 14.0 | 0.00 | 0.00 | 0.00 | 20 | 1019.1 |
| 20260509181035 | 67 | 34 | 9.0 | 16.0 | 0.00 | 0.00 | 0.00 | 19 | 1019.1 |
| 20260509180535 | 67 | 13 | 4.0 | 13.0 | 0.00 | 0.00 | 0.00 | 21 | 1019.2 |
| 20260509180034 | 67 | 42 | 7.0 | 13.0 | 0.00 | 0.00 | 0.00 | 21 | 1019.2 |
| 20260509175533 | 66 | 44 | 6.0 | 13.0 | 0.00 | 0.00 | 0.00 | 20 | 1019.2 |
| 20260509175036 | 66 | 51 | 3.0 | 17.0 | 0.00 | 0.00 | 0.00 | 20 | 1019.2 |
| 20260509174532 | 66 | 11 | 8.0 | 17.0 | 0.00 | 0.00 | 0.00 | 22 | 1019.2 |
| 20260509174032 | 66 | 324 | 6.0 | 14.0 | 0.00 | 0.00 | 0.00 | 22 | 1019.2 |
| 20260509173532 | 66 | 22 | 7.0 | 14.0 | 0.00 | 0.00 | 0.00 | 21 | 1019.3 |
| 20260509173054 | 66 | 335 | 7.0 | 12.0 | 0.00 | 0.00 | 0.00 | 21 | 1019.2 |
| 20260509172531 | 66 | 23 | 6.0 | 13.0 | 0.00 | 0.00 | 0.00 | 23 | 1019.2 |
| 20260509172032 | 66 | 331 | 7.0 | 13.0 | 0.00 | 0.00 | 0.00 | 23 | 1019.2 |
| 20260509171536 | 66 | 37 | 8.0 | 15.0 | 0.00 | 0.00 | 0.00 | 23 | 1019.2 |
| 20260509171030 | 66 | 347 | 3.0 | 12.0 | 0.00 | 0.00 | 0.00 | 24 | 1019.1 |
| 20260509170531 | 66 | 321 | 6.0 | 13.0 | 0.00 | 0.00 | 0.00 | 23 | 1019.2 |
| 20260509170030 | 66 | 331 | 6.0 | 11.0 | 0.00 | 0.00 | 0.00 | 24 | 1019.1 |
| 20260509165527 | 66 | 11 | 4.0 | 12.0 | 0.00 | 0.00 | 0.00 | 24 | 1019.1 |
| 20260509165027 | 66 | 352 | 8.0 | 12.0 | 0.00 | 0.00 | 0.00 | 23 | 1019.2 |
| 20260509164527 | 65 | 349 | 6.0 | 12.0 | 0.00 | 0.00 | 0.00 | 24 | 1019.1 |
| 20260509164026 | 65 | 342 | 7.0 | 16.0 | 0.00 | 0.00 | 0.00 | 24 | 1019.2 |
| 20260509163526 | 65 | 15 | 7.0 | 16.0 | 0.00 | 0.00 | 0.00 | 24 | 1019.2 |
| 20260509163025 | 65 | 3 | 5.0 | 12.0 | 0.00 | 0.00 | 0.00 | 24 | 1019.3 |
| 20260509162525 | 65 | 24 | 7.0 | 12.0 | 0.00 | 0.00 | 0.00 | 24 | 1019.3 |
| 20260509162024 | 65 | 350 | 6.0 | 13.0 | 0.00 | 0.00 | 0.00 | 25 | 1019.3 |
| 20260509161524 | 64 | 25 | 6.0 | 14.0 | 0.00 | 0.00 | 0.00 | 24 | 1019.3 |
| 20260509161022 | 64 | 352 | 7.0 | 14.0 | 0.00 | 0.00 | 0.00 | 24 | 1019.3 |
| 20260509160523 | 64 | 19 | 5.0 | 13.0 | 0.00 | 0.00 | 0.00 | 25 | 1019.3 |
| 20260509160023 | 64 | 21 | 6.0 | 15.0 | 0.00 | 0.00 | 0.00 | 25 | 1019.4 |
| 20260509155520 | 64 | 21 | 9.0 | 15.0 | 0.00 | 0.00 | 0.00 | 25 | 1019.5 |
| 20260509155020 | 64 | 24 | 8.0 | 15.0 | 0.00 | 0.00 | 0.00 | 25 | 1019.4 |
| 20260509154519 | 64 | 8 | 6.0 | 16.0 | 0.00 | 0.00 | 0.00 | 25 | 1019.4 |
| 20260509154020 | 64 | 6 | 10.0 | 15.0 | 0.00 | 0.00 | 0.00 | 24 | 1019.4 |
| 20260509153519 | 64 | 6 | 5.0 | 15.0 | 0.00 | 0.00 | 0.00 | 25 | 1019.5 |
| 20260509153029 | 64 | 25 | 4.0 | 12.0 | 0.00 | 0.00 | 0.00 | 26 | 1019.4 |
| 20260509152517 | 64 | 19 | 5.0 | 15.0 | 0.00 | 0.00 | 0.00 | 25 | 1019.3 |
| 20260509152017 | 64 | 345 | 5.0 | 15.0 | 0.00 | 0.00 | 0.00 | 26 | 1019.3 |
| 20260509151516 | 63 | 16 | 6.0 | 12.0 | 0.00 | 0.00 | 0.00 | 25 | 1019.3 |
| 20260509151018 | 63 | 34 | 5.0 | 12.0 | 0.00 | 0.00 | 0.00 | 26 | 1019.2 |
| 20260509150514 | 63 | 328 | 6.0 | 13.0 | 0.00 | 0.00 | 0.00 | 26 | 1019.3 |
| 20260509150013 | 63 | 355 | 6.0 | 11.0 | 0.00 | 0.00 | 0.00 | 26 | 1019.2 |
| 20260509145513 | 63 | 319 | 6.0 | 11.0 | 0.00 | 0.00 | 0.00 | 26 | 1019.3 |
| 20260509145013 | 63 | 320 | 4.0 | 10.0 | 0.00 | 0.00 | 0.00 | 27 | 1019.2 |
| 20260509144512 | 63 | 326 | 4.0 | 10.0 | 0.00 | 0.00 | 0.00 | 28 | 1019.2 |
| 20260509144012 | 62 | 338 | 5.0 | 9.0 | 0.00 | 0.00 | 0.00 | 27 | 1019.1 |
| 20260509143516 | 62 | 20 | 4.0 | 8.0 | 0.00 | 0.00 | 0.00 | 27 | 1019.1 |
| 20260509143013 | 62 | 297 | 4.0 | 10.0 | 0.00 | 0.00 | 0.00 | 28 | 1019.1 |
| 20260509142510 | 62 | 326 | 5.0 | 10.0 | 0.00 | 0.00 | 0.00 | 27 | 1019.1 |
| 20260509142010 | 62 | 306 | 5.0 | 10.0 | 0.00 | 0.00 | 0.00 | 28 | 1019.0 |